User: anonymous   Login
Location: Unspecified
(0.0000°N, 0.0000°E)
Time: 21:53:25
(UTC+00:00)
Language:

SIRIUS-3 - Orbit

View from above orbital plane
View from above orbital plane
View from above satellite
View from above satellite

Ground track
Ground track

The orbit is defined by the following mean orbital elements,

1 26626U          26149.68299220 +.00000000 +00000-0 +00000-0 0 00005
2 26626  59.7132 277.2028 0007439 277.8447  82.0345  1.58823457    06
Epoch (UTC): 29 May 2026 16:23:30
Eccentricity: 0.0007439
inclination: 59.7132°
perigee height: 24630 km
apogee height: 24676 km
right ascension of ascending node: 277.2028°
argument of perigee: 277.8447°
revolutions per day: 1.58823457
mean anomaly at epoch: 82.0345°

The dashed part of the orbit path shows where the satellite is in the earth's shadow,  

DLR